#timestamp,LO_Frequency,Hit 
1506409215.1,286047004.6,N
1506409216.0,286047004.6,N
1506409235.8,286047007.6,N
1506409255.6,286047003.1,N
1506409275.5,286047001.8,N
1506409295.3,286047001.3,N
1506409315.1,286047004.8,N
1506409335.9,286047004.5,N
1506409355.7,286047003.2,N
1506409375.5,286047001.0,N
1506409395.4,286046998.7,N
1506409415.2,286047001.2,N
1506409435.0,286046994.9,N
1506409435.9,286046994.9,N
1506409455.8,286046995.6,N
1506409475.6,286046997.2,N
1506409495.4,286046997.6,N
1506409515.3,286047000.0,N
1506409535.1,286047006.0,N
1506409536.0,286047006.0,N
1506409555.8,286047006.1,N
1506409575.7,286047006.1,N
1506409595.5,286047006.0,N
1506409615.3,286047003.4,N
1506409635.1,286047009.1,N
1506409655.9,286047003.2,N
1506409675.7,286047003.7,N
1506409695.5,286047005.1,N
1506409715.4,286047007.8,N
1506409735.2,286047006.4,N
1506409755.0,286047007.4,N
1506409755.9,286047007.4,N
1506409775.8,286047001.6,N
1506409795.6,286047000.1,N
1506409815.4,286047003.4,N
1506409835.3,286047004.4,N
1506409855.1,286047003.4,N
1506409856.0,286047003.4,N
1506409875.8,286047005.5,N
1506409895.7,286047005.9,N
1506409915.5,286047002.9,N
1506409935.3,286047010.4,N
1506409955.1,286047010.0,N
1506409975.9,286047010.1,N
1506409995.7,286047014.8,P
1506410015.6,286047011.8,N
1506410035.4,286047012.3,N
1506410055.2,286047012.2,P
1506410075.1,286047001.2,N
1506410076.0,286047001.2,N
1506410095.8,286046997.6,N
1506410115.6,286046993.4,N
1506410135.5,286046988.1,N
1506410155.3,286046985.5,N
1506410175.1,286046987.9,N
1506410195.9,286046989.5,N
1506410215.7,286046989.7,N
1506410235.5,286046988.6,N
1506410255.3,286046987.4,N
1506410275.2,286046992.2,N
1506410295.0,286046993.6,N
1506410295.9,286046993.6,N
1506410315.7,286046994.0,N
1506410335.6,286046991.7,N
1506410355.4,286046988.7,N
1506410375.2,286046989.9,N
1506410395.1,286046992.7,N
1506410396.0,286046992.7,N
1506410415.8,286046994.3,N
1506410435.6,286046994.1,N
1506410455.5,286046994.2,N
1506410475.3,286046993.0,N
1506410495.1,286046989.8,N
1506410515.9,286046989.6,N
1506410535.7,286046989.7,N
1506410555.5,286046990.0,N
1506410575.3,286046985.8,N
1506410595.2,286046981.9,P
1506410615.0,286046988.5,N
1506410615.9,286046988.5,N
1506410635.8,286046994.0,N
1506410655.6,286046991.2,N
1506410675.4,286046988.4,N
1506410695.3,286046985.8,P
1506410715.1,286047000.7,N
1506410716.0,286047000.7,N
1506410735.8,286047002.5,N
1506410755.7,286047005.3,N
1506410775.5,286047005.6,N
1506410795.3,286047004.4,N
1506410815.1,286047003.2,N
1506410835.9,286046998.2,N
1506410855.7,286046997.7,N
1506410875.5,286046997.2,N
1506410895.4,286046998.1,N
1506410915.2,286046999.4,N
1506410935.0,286046997.0,N
1506410935.9,286046997.0,N
1506410955.8,286046999.6,N
1506410975.6,286046995.8,N
1506410995.4,286046991.4,N
1506411015.3,286046987.7,N
1506411035.1,286046988.4,N
1506411036.0,286046988.4,N
1506411055.8,286046986.3,N
1506411075.7,286046984.7,N
1506411095.5,286046989.9,N
1506411115.3,286046992.4,N
1506411135.1,286046994.8,N
1506411155.9,286046993.7,N
1506411175.7,286046991.9,N
1506411195.5,286046988.7,N
1506411215.4,286046990.4,N
1506411235.2,286046987.5,N
1506411255.0,286046991.5,N
1506411255.9,286046991.5,N
1506411275.8,286046988.5,N
1506411295.6,286046991.0,N
1506411315.4,286046992.3,N
1506411335.3,286046992.1,N
1506411355.1,286046992.3,N
1506411356.0,286046992.3,N
1506411375.8,286046994.3,N
1506411395.7,286046991.7,N
1506411415.5,286046998.1,N
1506411435.3,286047001.6,N
1506411455.1,286047002.2,N
1506411475.9,286047002.6,N
1506411495.7,286046999.0,N
1506411515.5,286046995.2,N
1506411535.4,286046992.7,N
1506411555.2,286046987.3,N
1506411575.0,286046986.4,P
1506411576.0,286046986.4,P
1506411595.8,286046992.6,N
1506411615.6,286046988.7,P
1506411635.5,286046997.7,P
1506411655.3,286046997.0,N
1506411675.1,286046995.1,N
1506411695.9,286046995.1,N
1506411715.7,286046998.0,N
1506411735.5,286046999.6,N
1506411755.3,286046998.2,N
1506411775.2,286047001.7,N
1506411795.0,286047003.9,N
1506411795.9,286047003.9,N
1506411815.7,286047004.4,N
1506411835.6,286047001.5,N
1506411855.4,286046998.5,N
1506411875.2,286047000.0,N
1506411895.1,286046998.7,N
1506411896.0,286046998.7,N
1506411915.8,286047001.0,N
1506411935.6,286047000.7,N
1506411955.5,286047002.5,N
1506411975.3,286047000.4,N
1506411995.1,286047002.3,N
1506412015.8,286047000.2,N
1506412035.7,286046999.6,N
1506412055.5,286046996.2,N
1506412075.3,286046996.4,N
1506412095.2,286046995.0,N
1506412115.9,286046998.4,N
1506412135.7,286046995.6,N
1506412155.6,286046993.8,N
1506412175.4,286046994.1,N
1506412195.2,286046997.3,N
1506412215.1,286046996.9,N
1506412216.0,286046996.9,N
1506412235.8,286047002.0,N
1506412255.6,286047005.5,N
1506412275.5,286047003.2,N
1506412295.3,286047000.9,N
1506412315.1,286047000.2,N
1506412335.8,286046999.8,N
1506412355.7,286047000.1,N
1506412375.5,286046998.6,N
1506412395.3,286046995.6,N
1506412415.2,286046993.4,N
1506412435.9,286046993.6,N
1506412455.7,286046994.6,N
1506412475.6,286046995.6,N
1506412495.4,286046993.3,N
1506412515.2,286046991.4,N
1506412535.1,286046985.6,P
1506412536.0,286046985.6,N
1506412555.8,286046987.4,N
1506412575.6,286046989.7,N
1506412595.5,286046987.8,N
1506412615.3,286046988.1,N
1506412635.1,286046984.6,P
1506412655.9,286046993.7,N
1506412675.7,286046992.1,N
1506412695.5,286046999.1,N
1506412715.4,286046995.6,N
1506412735.2,286046999.2,N
1506412755.0,286046993.8,N
1506412755.9,286046993.8,N
1506412775.8,286046997.5,N
1506412795.6,286047000.8,N
